When you browse on this site, cookies collect data to enhance your experience and personalize the content and advertising you see.
Visit our Privacy Policy to learn more. By continuing to use the site, you agree to this use of cookies and data.
  • In Sweden
  • List of Countries
  • For 7 days
  • Water Temperature
  • Weather Map
  • Weather Widgets
  • user-avatar
    Login

    Hourly Weather Bhopal

    Today, 26 May, Tuesday

    Time Temperature Precipitation Wind Pressure Humidity
    00:00 +34°C° 0 mm 3 mps 711 mmHg 17%
    01:00 +34°C° 0 mm 4 mps 711 mmHg 17%
    02:00 +33°C° 0 mm 4 mps 711 mmHg 17%
    03:00 +33°C° 0 mm 4 mps 711 mmHg 17%
    04:00 +32°C° 0 mm 5 mps 711 mmHg 18%
    05:00 +32°C° 0 mm 5 mps 711 mmHg 18%
    06:00 +34°C° 0 mm 5 mps 712 mmHg 17%
    07:00 +38°C° 0 mm 6 mps 713 mmHg 16%
    08:00 +41°C° 0 mm 7 mps 714 mmHg 14%
    09:00 +44°C° 0 mm 6 mps 713 mmHg 12%
    10:00 +45°C° 0 mm 5 mps 713 mmHg 10%
    11:00 +47°C° 0 mm 5 mps 713 mmHg 8%
    12:00 +48°C° 0 mm 5 mps 712 mmHg 7%
    13:00 +49°C° 0 mm 5 mps 712 mmHg 7%
    14:00 +49°C° 0 mm 5 mps 711 mmHg 6%
    15:00 +48°C° 0 mm 6 mps 711 mmHg 7%
    16:00 +49°C° 0 mm 7 mps 710 mmHg 8%
    17:00 +47°C° 0 mm 7 mps 710 mmHg 9%
    18:00 +45°C° 0 mm 6 mps 710 mmHg 10%
    19:00 +42°C° 0 mm 5 mps 710 mmHg 11%
    20:00 +38°C° 0 mm 4 mps 711 mmHg 13%
    21:00 +38°C° 0 mm 4 mps 711 mmHg 13%
    22:00 +37°C° 0 mm 5 mps 711 mmHg 14%
    23:00 +36°C° 0 mm 5 mps 711 mmHg 15%

    Tomorrow, 27 May, Wednesday

    Time Temperature Precipitation Wind Pressure Humidity
    00:00 +35°C° 0 mm 5 mps 710 mmHg 16%
    01:00 +35°C° 0 mm 5 mps 710 mmHg 17%
    02:00 +34°C° 0 mm 5 mps 710 mmHg 18%
    03:00 +33°C° 0 mm 5 mps 710 mmHg 23%
    04:00 +32°C° 0 mm 5 mps 710 mmHg 28%
    05:00 +30°C° 0 mm 5 mps 710 mmHg 34%
    06:00 +33°C° 0 mm 5 mps 711 mmHg 33%
    07:00 +35°C° 0 mm 6 mps 711 mmHg 32%
    08:00 +38°C° 0 mm 6 mps 712 mmHg 31%
    09:00 +41°C° 0 mm 6 mps 712 mmHg 26%
    10:00 +44°C° 0 mm 6 mps 712 mmHg 21%
    11:00 +46°C° 0 mm 6 mps 712 mmHg 16%
    12:00 +47°C° 0 mm 5 mps 711 mmHg 14%
    13:00 +48°C° 0 mm 5 mps 710 mmHg 12%
    14:00 +49°C° 0 mm 5 mps 710 mmHg 10%
    15:00 +49°C° 0 mm 5 mps 709 mmHg 10%
    16:00 +48°C° 0 mm 6 mps 709 mmHg 10%
    17:00 +48°C° 0 mm 6 mps 708 mmHg 10%
    18:00 +46°C° 0 mm 6 mps 708 mmHg 12%
    19:00 +43°C° 0 mm 5 mps 709 mmHg 14%
    20:00 +41°C° 0 mm 5 mps 709 mmHg 16%
    21:00 +40°C° 0 mm 5 mps 709 mmHg 17%
    22:00 +39°C° 0 mm 5 mps 709 mmHg 18%
    23:00 +38°C° 0 mm 6 mps 709 mmHg 20%

    Day after tomorrow, 28 May, Thursday

    Time Temperature Precipitation Wind Pressure Humidity
    00:00 +36°C° 0 mm 6 mps 709 mmHg 26%
    01:00 +34°C° 0 mm 6 mps 709 mmHg 33%
    02:00 +33°C° 0 mm 6 mps 709 mmHg 40%
    03:00 +32°C° 0 mm 6 mps 709 mmHg 46%
    04:00 +30°C° 0 mm 6 mps 709 mmHg 52%
    05:00 +29°C° 0 mm 6 mps 709 mmHg 58%
    06:00 +32°C° 0 mm 6 mps 710 mmHg 50%
    07:00 +34°C° 0 mm 7 mps 711 mmHg 41%
    08:00 +36°C° 0 mm 7 mps 712 mmHg 33%
    09:00 +39°C° 0 mm 7 mps 711 mmHg 27%
    10:00 +43°C° 0 mm 7 mps 711 mmHg 22%
    11:00 +45°C° 0 mm 7 mps 711 mmHg 16%
    12:00 +46°C° 0 mm 7 mps 711 mmHg 14%
    13:00 +48°C° 0 mm 6 mps 710 mmHg 12%
    14:00 +49°C° 0 mm 6 mps 709 mmHg 10%
    15:00 +48°C° 0 mm 6 mps 709 mmHg 10%
    16:00 +48°C° 0 mm 6 mps 708 mmHg 10%
    17:00 +47°C° 0 mm 6 mps 708 mmHg 10%
    18:00 +45°C° 0 mm 6 mps 708 mmHg 12%
    19:00 +42°C° 0 mm 5 mps 709 mmHg 14%
    20:00 +40°C° 0 mm 5 mps 709 mmHg 16%
    21:00 +39°C° 0 mm 5 mps 709 mmHg 18%
    22:00 +37°C° 0 mm 5 mps 710 mmHg 20%
    23:00 +37°C° 0 mm 5 mps 710 mmHg 22%

    29 May, Friday

    Time Temperature Precipitation Wind Pressure Humidity
    00:00 +35°C° 0 mm 6 mps 710 mmHg 28%
    01:00 +34°C° 0 mm 7 mps 709 mmHg 34%
    02:00 +33°C° 0 mm 7 mps 709 mmHg 41%
    03:00 +32°C° 0 mm 7 mps 709 mmHg 44%
    04:00 +30°C° 0 mm 6 mps 710 mmHg 47%
    05:00 +29°C° 0 mm 6 mps 710 mmHg 51%
    06:00 +32°C° 0 mm 6 mps 711 mmHg 46%
    07:00 +34°C° 0 mm 7 mps 711 mmHg 41%
    08:00 +36°C° 0 mm 7 mps 712 mmHg 36%
    09:00 +39°C° 0 mm 7 mps 712 mmHg 30%
    10:00 +41°C° 0 mm 6 mps 712 mmHg 24%
    11:00 +44°C° 0 mm 6 mps 712 mmHg 17%
    12:00 +45°C° 0 mm 6 mps 711 mmHg 15%
    13:00 +46°C° 0 mm 6 mps 711 mmHg 13%
    14:00 +47°C° 0 mm 6 mps 710 mmHg 11%
    15:00 +47°C° 0 mm 6 mps 710 mmHg 11%
    16:00 +46°C° 0 mm 6 mps 709 mmHg 11%
    17:00 +46°C° 0 mm 6 mps 709 mmHg 11%
    18:00 +42°C° 0 mm 5 mps 709 mmHg 14%
    19:00 +40°C° 0 mm 5 mps 710 mmHg 16%
    20:00 +37°C° 0 mm 4 mps 710 mmHg 19%
    21:00 +36°C° 0 mm 4 mps 710 mmHg 22%
    22:00 +36°C° 0 mm 4 mps 710 mmHg 25%
    23:00 +35°C° 0 mm 5 mps 711 mmHg 27%

    30 May, Saturday

    Time Temperature Precipitation Wind Pressure Humidity
    00:00 +34°C° 0 mm 5 mps 711 mmHg 33%
    01:00 +33°C° 0 mm 5 mps 711 mmHg 39%
    02:00 +32°C° 0 mm 5 mps 711 mmHg 44%
    03:00 +30°C° 0 mm 5 mps 711 mmHg 51%
    04:00 +30°C° 0 mm 5 mps 711 mmHg 58%
    05:00 +29°C° 0 mm 5 mps 712 mmHg 65%
    06:00 +30°C° 0 mm 6 mps 712 mmHg 59%
    07:00 +33°C° 0 mm 6 mps 713 mmHg 52%
    08:00 +35°C° 0 mm 6 mps 713 mmHg 46%
    09:00 +38°C° 0 mm 6 mps 713 mmHg 38%
    10:00 +40°C° 0 mm 5 mps 713 mmHg 29%
    11:00 +42°C° 0 mm 5 mps 714 mmHg 21%
    12:00 +45°C° 0 mm 5 mps 713 mmHg 17%
    13:00 +46°C° 0 mm 5 mps 712 mmHg 13%
    14:00 +47°C° 0 mm 5 mps 712 mmHg 10%
    15:00 +47°C° 0 mm 5 mps 711 mmHg 10%
    16:00 +46°C° 0 mm 5 mps 711 mmHg 10%
    17:00 +46°C° 0 mm 5 mps 710 mmHg 11%
    18:00 +43°C° 0 mm 5 mps 711 mmHg 13%
    19:00 +40°C° 0 mm 4 mps 711 mmHg 16%
    20:00 +37°C° 0 mm 3 mps 711 mmHg 18%
    21:00 +36°C° 0 mm 4 mps 711 mmHg 20%
    22:00 +36°C° 0 mm 4 mps 712 mmHg 22%
    23:00 +35°C° 0 mm 4 mps 712 mmHg 23%

    31 May, Sunday

    Time Temperature Precipitation Wind Pressure Humidity
    00:00 +34°C° 0 mm 4 mps 712 mmHg 25%
    01:00 +34°C° 0 mm 4 mps 712 mmHg 27%
    02:00 +33°C° 0 mm 4 mps 712 mmHg 28%
    03:00 +32°C° 0 mm 5 mps 712 mmHg 39%
    04:00 +30°C° 0 mm 5 mps 713 mmHg 50%
    05:00 +29°C° 0 mm 6 mps 713 mmHg 61%
    06:00 +30°C° 0 mm 6 mps 714 mmHg 58%
    07:00 +33°C° 0 mm 6 mps 714 mmHg 55%
    08:00 +34°C° 0 mm 6 mps 715 mmHg 52%
    09:00 +36°C° 0 mm 6 mps 715 mmHg 43%
    10:00 +40°C° 0 mm 5 mps 714 mmHg 34%
    11:00 +42°C° 0 mm 4 mps 714 mmHg 26%
    12:00 +43°C° 0 mm 4 mps 713 mmHg 21%
    13:00 +46°C° 0 mm 5 mps 713 mmHg 17%
    14:00 +47°C° 0 mm 6 mps 712 mmHg 13%
    15:00 +47°C° 0 mm 6 mps 712 mmHg 11%
    16:00 +47°C° 0 mm 6 mps 711 mmHg 10%
    17:00 +47°C° 0 mm 6 mps 711 mmHg 9%
    18:00 +43°C° 0 mm 5 mps 711 mmHg 10%
    19:00 +41°C° 0 mm 4 mps 711 mmHg 12%
    20:00 +37°C° 0 mm 4 mps 711 mmHg 13%
    21:00 +36°C° 0 mm 4 mps 711 mmHg 15%
    22:00 +36°C° 0 mm 4 mps 712 mmHg 18%
    23:00 +35°C° 0 mm 4 mps 712 mmHg 20%
    Show more